When you browse on this site, cookies collect data to enhance your experience and personalize the content and advertising you see.
Visit our Privacy Policy to learn more. By continuing to use the site, you agree to this use of cookies and data.
  • In Hungary
  • List of Countries
  • For 7 days
  • Water Temperature
  • Weather Map
  • News
  • Weather Widgets
  • user-avatar
    Login

    Hourly Weather Novosadkovskiy

    Today, 14 October, Monday

    Time Temperature Precipitation Wind Pressure Humidity
    00:00 +12°C° 0 mm 4 mps 767 mmHg 65%
    01:00 +12°C° 0 mm 3 mps 767 mmHg 68%
    02:00 +11°C° 0 mm 3 mps 767 mmHg 71%
    03:00 +11°C° 0 mm 3 mps 767 mmHg 77%
    04:00 +11°C° 0 mm 3 mps 767 mmHg 79%
    05:00 +12°C° 0 mm 2 mps 767 mmHg 81%
    06:00 +12°C° 0 mm 2 mps 767 mmHg 83%
    07:00 +13°C° 0 mm 2 mps 767 mmHg 77%
    08:00 +15°C° 0 mm 2 mps 767 mmHg 72%
    09:00 +17°C° 0 mm 3 mps 768 mmHg 64%
    10:00 +18°C° 0 mm 3 mps 768 mmHg 59%
    11:00 +20°C° 0 mm 2 mps 768 mmHg 53%
    12:00 +23°C° 0 mm 2 mps 767 mmHg 47%
    13:00 +24°C° 0 mm 2 mps 767 mmHg 45%
    14:00 +24°C° 0 mm 2 mps 767 mmHg 42%
    15:00 +24°C° 0 mm 2 mps 767 mmHg 40%
    16:00 +23°C° 0 mm 1 mps 766 mmHg 45%
    17:00 +21°C° 0 mm 1 mps 766 mmHg 50%
    18:00 +19°C° 0 mm 1 mps 766 mmHg 55%
    19:00 +19°C° 0 mm 1 mps 766 mmHg 56%
    20:00 +18°C° 0 mm 1 mps 766 mmHg 58%
    21:00 +18°C° 0 mm 1 mps 766 mmHg 60%
    22:00 +16°C° 0 mm 1 mps 766 mmHg 62%
    23:00 +16°C° 0 mm 1 mps 766 mmHg 64%

    Tomorrow, 15 October, Tuesday

    Time Temperature Precipitation Wind Pressure Humidity
    00:00 +15°C° 0 mm 2 mps 765 mmHg 66%
    01:00 +15°C° 0 mm 1 mps 765 mmHg 67%
    02:00 +14°C° 0 mm 1 mps 765 mmHg 68%
    03:00 +14°C° 0 mm 1 mps 765 mmHg 70%
    04:00 +14°C° 0 mm 1 mps 765 mmHg 70%
    05:00 +13°C° 0 mm 1 mps 765 mmHg 70%
    06:00 +13°C° 0 mm 1 mps 764 mmHg 71%
    07:00 +14°C° 0 mm 1 mps 764 mmHg 65%
    08:00 +16°C° 0 mm 1 mps 765 mmHg 59%
    09:00 +18°C° 0 mm 1 mps 765 mmHg 54%
    10:00 +20°C° 0 mm 1 mps 765 mmHg 48%
    11:00 +22°C° 0 mm 1 mps 764 mmHg 42%
    12:00 +24°C° 0 mm 1 mps 764 mmHg 36%
    13:00 +24°C° 0 mm 1 mps 764 mmHg 35%
    14:00 +25°C° 0 mm 1 mps 763 mmHg 33%
    15:00 +25°C° 0 mm 1 mps 763 mmHg 31%
    16:00 +23°C° 0 mm 1 mps 763 mmHg 36%
    17:00 +22°C° 0 mm 1 mps 763 mmHg 40%
    18:00 +20°C° 0 mm 1 mps 763 mmHg 45%
    19:00 +19°C° 0 mm 1 mps 763 mmHg 46%
    20:00 +19°C° 0 mm 1 mps 763 mmHg 47%
    21:00 +18°C° 0 mm 1 mps 763 mmHg 49%
    22:00 +16°C° 0 mm 1 mps 763 mmHg 50%
    23:00 +16°C° 0 mm 1 mps 763 mmHg 50%

    Day after tomorrow, 16 October, Wednesday

    Time Temperature Precipitation Wind Pressure Humidity
    00:00 +16°C° 0 mm 1 mps 763 mmHg 51%
    01:00 +15°C° 0 mm 1 mps 763 mmHg 53%
    02:00 +15°C° 0 mm 1 mps 763 mmHg 55%
    03:00 +14°C° 0 mm 2 mps 764 mmHg 57%
    04:00 +14°C° 0 mm 2 mps 764 mmHg 61%
    05:00 +14°C° 0 mm 2 mps 764 mmHg 64%
    06:00 +13°C° 0 mm 2 mps 764 mmHg 68%
    07:00 +15°C° 0 mm 2 mps 764 mmHg 65%
    08:00 +16°C° 0 mm 3 mps 764 mmHg 63%
    09:00 +17°C° 0 mm 3 mps 764 mmHg 60%
    10:00 +19°C° 0 mm 3 mps 764 mmHg 55%
    11:00 +21°C° 0 mm 4 mps 764 mmHg 51%
    12:00 +23°C° 0 mm 4 mps 764 mmHg 46%
    13:00 +23°C° 0 mm 4 mps 764 mmHg 46%
    14:00 +23°C° 0 mm 4 mps 764 mmHg 45%
    15:00 +23°C° 0 mm 4 mps 764 mmHg 45%
    16:00 +22°C° 0 mm 4 mps 764 mmHg 52%
    17:00 +20°C° 0 mm 4 mps 764 mmHg 59%
    18:00 +18°C° 0 mm 4 mps 764 mmHg 66%
    19:00 +18°C° 0 mm 4 mps 764 mmHg 68%
    20:00 +16°C° 0 mm 5 mps 765 mmHg 70%
    21:00 +15°C° 0 mm 5 mps 765 mmHg 73%
    22:00 +15°C° 0 mm 5 mps 765 mmHg 74%
    23:00 +14°C° 0 mm 5 mps 765 mmHg 75%

    17 October, Thursday

    Time Temperature Precipitation Wind Pressure Humidity
    00:00 +14°C° 0 mm 5 mps 765 mmHg 76%
    01:00 +13°C° 0 mm 5 mps 765 mmHg 76%
    02:00 +13°C° 0 mm 5 mps 765 mmHg 76%
    03:00 +12°C° 0 mm 5 mps 765 mmHg 76%
    04:00 +12°C° 0 mm 4 mps 765 mmHg 77%
    05:00 +11°C° 0 mm 4 mps 765 mmHg 77%
    06:00 +11°C° 0 mm 4 mps 765 mmHg 77%
    07:00 +12°C° 0 mm 4 mps 765 mmHg 72%
    08:00 +13°C° 0 mm 4 mps 765 mmHg 68%
    09:00 +14°C° 0 mm 5 mps 765 mmHg 63%
    10:00 +16°C° 0 mm 5 mps 765 mmHg 58%
    11:00 +19°C° 0 mm 5 mps 765 mmHg 53%
    12:00 +21°C° 0 mm 5 mps 764 mmHg 48%
    13:00 +22°C° 0 mm 5 mps 764 mmHg 46%
    14:00 +22°C° 0 mm 5 mps 764 mmHg 44%
    15:00 +23°C° 0 mm 5 mps 763 mmHg 42%
    16:00 +21°C° 0 mm 5 mps 763 mmHg 48%
    17:00 +19°C° 0 mm 4 mps 763 mmHg 53%
    18:00 +17°C° 0 mm 3 mps 763 mmHg 59%
    19:00 +17°C° 0 mm 3 mps 763 mmHg 61%
    20:00 +16°C° 0 mm 3 mps 763 mmHg 64%
    21:00 +14°C° 0 mm 4 mps 763 mmHg 67%
    22:00 +14°C° 0 mm 3 mps 763 mmHg 69%
    23:00 +13°C° 0 mm 3 mps 763 mmHg 72%

    18 October, Friday

    Time Temperature Precipitation Wind Pressure Humidity
    00:00 +13°C° 0 mm 3 mps 762 mmHg 74%
    01:00 +12°C° 0 mm 3 mps 762 mmHg 77%
    02:00 +12°C° 0 mm 3 mps 762 mmHg 79%
    03:00 +12°C° 0 mm 3 mps 762 mmHg 81%
    04:00 +12°C° 0 mm 2 mps 762 mmHg 82%
    05:00 +12°C° 0 mm 2 mps 762 mmHg 84%
    06:00 +12°C° 0 mm 2 mps 762 mmHg 86%
    07:00 +13°C° 0 mm 2 mps 762 mmHg 80%
    08:00 +14°C° 0 mm 2 mps 762 mmHg 74%
    09:00 +16°C° 0 mm 3 mps 761 mmHg 68%
    10:00 +17°C° 0 mm 2 mps 761 mmHg 62%
    11:00 +19°C° 0 mm 2 mps 761 mmHg 55%
    12:00 +21°C° 0 mm 2 mps 761 mmHg 49%
    13:00 +23°C° 0 mm 2 mps 761 mmHg 46%
    14:00 +23°C° 0 mm 2 mps 761 mmHg 44%
    15:00 +24°C° 0 mm 1 mps 760 mmHg 42%
    16:00 +22°C° 0 mm 1 mps 760 mmHg 47%
    17:00 +21°C° 0 mm 1 mps 760 mmHg 52%
    18:00 +18°C° 0 mm 2 mps 760 mmHg 56%
    19:00 +17°C° 0 mm 2 mps 761 mmHg 58%
    20:00 +18°C° 0 mm 1 mps 761 mmHg 60%
    21:00 +16°C° 0 mm 1 mps 761 mmHg 62%
    22:00 +15°C° 0 mm 1 mps 761 mmHg 63%
    23:00 +15°C° 0 mm 1 mps 761 mmHg 64%

    19 October, Saturday

    Time Temperature Precipitation Wind Pressure Humidity
    00:00 +15°C° 0 mm 1 mps 761 mmHg 66%
    01:00 +14°C° 0 mm 1 mps 761 mmHg 67%
    02:00 +14°C° 0 mm 1 mps 762 mmHg 67%
    03:00 +14°C° 0 mm 1 mps 762 mmHg 68%
    04:00 +13°C° 0 mm 1 mps 762 mmHg 70%
    05:00 +13°C° 0 mm 1 mps 762 mmHg 71%
    06:00 +13°C° 0 mm 1 mps 763 mmHg 73%
    07:00 +14°C° 0 mm 1 mps 763 mmHg 67%
    08:00 +16°C° 0 mm 2 mps 763 mmHg 62%
    09:00 +17°C° 0 mm 2 mps 764 mmHg 57%
    10:00 +18°C° 0 mm 2 mps 764 mmHg 52%
    11:00 +20°C° 0 mm 2 mps 764 mmHg 47%
    12:00 +21°C° 0 mm 2 mps 764 mmHg 41%
    13:00 +23°C° 0 mm 2 mps 764 mmHg 40%
    14:00 +23°C° 0 mm 2 mps 763 mmHg 38%
    15:00 +24°C° 0 mm 2 mps 763 mmHg 37%
    16:00 +21°C° 0 mm 2 mps 763 mmHg 42%
    17:00 +19°C° 0 mm 3 mps 763 mmHg 47%
    18:00 +18°C° 0 mm 3 mps 764 mmHg 52%
    19:00 +17°C° 0 mm 3 mps 764 mmHg 54%
    20:00 +16°C° 0 mm 3 mps 764 mmHg 56%
    21:00 +14°C° 0 mm 3 mps 764 mmHg 57%
    22:00 +14°C° 0 mm 3 mps 764 mmHg 58%
    23:00 +14°C° 0 mm 3 mps 764 mmHg 58%
    Show more